Notices

What's New in latest Release from April 7th, 2021:

- Updated Glossary, including Speed of Maximum Gust, and Total Hourly Precipitation

- Updated national and regional climate services offices contacts and prices information

- Addition of station inventory lists for 1981-2010, 1971-2000, and 1961-1990 Normals.

If you haven't already, please take our survey and provide feedback about our website: https://eccc.sondage-survey.ca/f/LanguageSelection.aspx?s=442ca660-fcf1-47c0-95a9-59707d6fd709

Hourly Data Report for December 01, 2019

EUREKA CLIMATE
NUNAVUT
Current Station Operator: ECCC - MSC

79°59'21.000" N
85°56'02.000" W
10.00 m
2401199
71613
NEK

Download Data

Hourly Data (December 2019)
Hourly Data Report for December 1, 2019
TIME
LST
Temp Definition
°C
Dew Point Definition
°C
Rel Hum Definition
%
Precip. Amount Definition
mm

Wind Dir Definition
10's deg

Wind Spd Definition
km/h
Visibility Definition
km
Stn Press Definition
kPa
Hmdx Definition


Wind Chill Definition


Weather Definition


00:00 -34.3 -37.6 72 0.0 12 3   100.21   -38 LegendNANA
01:00 -34.4 -37.6 72 0.2 19 1   100.16   -36 LegendNANA
02:00 -34.3 -37.6 72 0.0 10 3   100.11   -38 LegendNANA
03:00 -35.6 -39.1 71 0.0 11 11   100.07   -46 LegendNANA
04:00 -34.1 -37.4 72 0.0 11 7   100.03   -42 LegendNANA
05:00 -33.9 -37.1 72 0.0 11 4   99.95   -39 LegendNANA
06:00 -34.3 -37.6 72 0.0 10 7   99.85   -42 LegendNANA
07:00 -35.0 -38.3 71 0.0 12 8   99.79   -44 LegendNANA
08:00 -34.0 -37.3 72 0.0 10 3   99.67   -38 LegendNANA
09:00 -34.6 -37.9 72 0.0 11 7   99.58   -43 LegendNANA
10:00 -33.4 -36.6 73 0.0 11 10   99.50   -43 LegendNANA
11:00 -34.6 -37.9 72 0.0 10 6   99.41   -42 LegendNANA
12:00 -34.3 -37.6 72 0.0 11 8   99.32   -43 LegendNANA
13:00 -34.6 -37.9 72 0.0 13 4   99.24   -40 LegendNANA
14:00 -33.8 -37.1 73 0.0 15 1   99.16   -35 LegendNANA
15:00 -33.8 -37.1 72 0.0 12 5   99.07   -40 LegendNANA
16:00 -33.3 -36.6 72 0.0 13 5   99.02   -39 LegendNANA
17:00 -33.0 -36.2 73 0.0 11 9   98.98   -42 LegendNANA
18:00 -33.2 -36.4 73 0.0 12 7   98.93   -41 LegendNANA
19:00 -31.6 -34.6 75 0.0 5 3   98.89   -35 LegendNANA
20:00 -31.7 -34.8 74 0.0 11 15   98.84   -44 LegendNANA
21:00 -29.6 -32.4 77 0.0 11 8   98.80   -38 LegendNANA
22:00 -30.5 -33.4 76 0.0 2 11   98.75   -40 LegendNANA
23:00 -30.3 -33.2 76 0.0 10 5   98.71   -36 LegendNANA

Notes on Data Quality.

Legend

  • E = Estimated
  • M = Missing
  • NA = Not Available*
  • [empty] = Indicates an unobserved value
Date modified: